DELTA 1 DEB, 10841

Orbit data source: Space-Track

DELTA 1 DEB, 10841 is space debris in SSO originally from a launch on Thu, 29 Jul 1976 UTC launched from the Air Force Western Test Range (AFWTR). Debris objects in space refer to the collection of defunct objects orbiting the Earth. Examples of debris include non-operational satellites, rocket bodies, and fragments generated from explosions, collisions, or faulty payload assembly.

Loading next visibility...
Identifier
10841, 1976-077CM
Orbit
SSO
Country
Flag of USUS
Related business
Manufacturer
Unknown
Mission
Spacecraft
Bus & Motor
Unknown
Mass
Unknown
Launch date (UTC)
1976-07-29 (49 years ago)
Launch vehicle
Unknown
Launch site
Air Force Western Test Range (AFWTR)
Object type
Payload
Rocket body
Debris
Shape & HBR
Unknown shape, 0.1 m
Radar Cross Section
Small (<0.1 m²)

Expand to show TLE details & history
Last TLE update: 13 hours ago

TLE from 13 hours ago
0 DELTA 1 DEB
1 10841U 76077CM  25352.89789909 -.00000009  00000-0  23139-3 0  9998
2 10841 101.9303 332.5288 0065908 101.3996 318.3746 12.53059211257062
Epoch: 2025-12-18T21:32Z
TLE epoch observation values (Epoch: 2025-12-18T21:32:58.481Z)
Latitude
57.34148°
Longitude
-97.60955°
Altitude
1,422.719 km
Speed
7.172 km/s
True Right ascension
20h 53m 31s
True Declination
57° 11' 54"
Sunlit
Object was in daylight at epoch
Visualization orbit readout
Latitude
Unknown
Longitude
Unknown
Altitude
Unknown
Speed
Unknown
Apparent Right ascension
Unknown
Apparent Declination
Unknown
Sunlit
N/A
Visualization observer readout
Local Sidereal Time
09:29:34
Azimuth
Unknown
Elevation
Unknown
Doppler factor
Unknown
Orbital elements
Apogee altitude
1,500.867 km
Perigee altitude
1,397.69 km
Semi-major axis
7,827.415 km
Eccentricity
0.00659
Inclination
101.9303°
RAAN
332.5288°
Arg. of periapsis
101.3996°
True anomaly
317.86982°
Mean anomaly
318.3746°
Eccentric anomaly
318.12252°
Mean motion
3.13412 °/min
Orbital period
114.86 mins
BSTAR
0.00023139
Loading maneuver chart data...
Computing Atmospheric mass density...
Loading historical data...
Loading historical data...
Loading historical data...
Loading historical data...
Loading historical data...
Loading historical data...
Loading historical data...

Documentation

Showing up to 5 results
|